Location: Derby
(52.9213°N, 1.4761°W)
Time: 16:40:14
(UTC+01:00)

Vanguard 1 - Pass Details

Date: 21 May 2025
Orbit: 649 x 3822 km, 34.3° (Epoch: 14 June)

Event Time Altitude Azimuth Distance (km) Brightness Sun altitude
Rises 16:17:42 0° 204° (SSW) 7,860 15.2 40.5°
Reaches altitude 10° 16:25:32 10° 191° (S) 6,540 14.7 39.4°
Maximum altitude 16:37:50 20° 153° (SSE) 4,868 13.7 37.7°
Drops below altitude 10° 16:47:04 10° 113° (ESE) 4,799 13.3 36.3°
Sets 16:51:27 0° 98° (E) 5,303 13.4 35.7°
